C/2012 K6 ( McNaught )

Japanese version
Home page
Updated on April 10, 2013

---------------------------------------------------------------------

* Profile

Discovery Date May 27, 2012
Magnitude 18.4 mag
Discoverer Robert H. McNaught (Siding Spring)

* Pictures

* Orbital Elements

Epoch 2013 May 28.0 TT = JDT 2456440.5
T 2013 May 21.49869 TT                                  MPC
q   3.3530435            (2000.0)            P               Q
z  +0.0001580      Peri.  338.83398     -0.71569588     -0.62146984
 +/-0.0000012      Node   206.89857     -0.49561203     +0.13043595
e   0.9994703      Incl.  135.21944     -0.49208549     +0.77250353
From 85 observations 2012 May 27-2013 Mar. 10, mean residual 0".3.

* Finding Charts

* Magnitudes Graph

        m1 = 5.0 + 5 log d + 15.0 log r

---------------------------------------------------------------------

The orbital elements are published on M.P.E.C. 2013-F47.
The charts are made with StellaNavigator Ver.8 (AstroArts).
The magnitudes graphs are made with Comet for Windows.

---------------------------------------------------------------------

Copyright(C) Seiichi Yoshida (comet@aerith.net). All rights reserved.